FW8060 Weather Reports


Display with metric or nautical units.
time (UTC)temp
F
wind
direction
speed
MPH
gust
MPH
rain 1hr
in
rain 24hr
in
rain mn
in
humidity
%
barometer
mb
20260902071856 59 169 3.0 9.0 0.00 0.00 0.00 92 1020.4
20260902071751 60 177 3.0 8.0 0.00 0.00 0.00 92 1020.4
20260902070722 59 187 3.0 9.0 0.00 0.00 0.00 93 1020.4
20260902064742 58 219 4.0 9.0 0.00 0.00 0.00 93 1020.6
20260902063743 58 202 4.0 8.0 0.00 0.00 0.00 93 1020.5
20260902062745 57 184 3.0 8.0 0.00 0.00 0.00 93 1020.4
20260902061742 57 174 3.0 7.0 0.00 0.00 0.00 93 1020.3
20260902060740 57 199 3.0 8.0 0.00 0.00 0.00 93 1020.3
20260902055741 57 173 3.0 7.0 0.00 0.00 0.00 93 1020.3
20260902054735 57 187 3.0 7.0 0.00 0.00 0.00 94 1020.1
20260902053736 56 159 4.0 8.0 0.00 0.00 0.00 94 1020.1
20260902052738 56 175 4.0 9.0 0.00 0.00 0.00 94 1020.1
20260902051736 56 176 4.0 8.0 0.00 0.00 0.00 94 1020.2
20260902050735 56 198 3.0 7.0 0.00 0.00 0.00 94 1020.1
20260902045731 56 238 3.0 7.0 0.00 0.00 0.00 94 1020.1
20260902044736 56 213 3.0 7.0 0.00 0.00 0.00 93 1020.0
20260902043736 56 207 3.0 8.0 0.00 0.00 0.00 93 1019.9
20260902042736 56 189 3.0 8.0 0.00 0.00 0.00 93 1019.9
20260902042715 56 176 3.0 7.0 0.00 0.00 0.00 93 1020.0
20260902040732 56 173 4.0 10.0 0.00 0.00 0.00 93 1019.8
20260902035732 56 194 3.0 8.0 0.00 0.00 0.00 93 1020.0
20260902034728 56 175 3.0 6.0 0.00 0.00 0.00 92 1020.0
20260902034621 57 188 2.0 8.0 0.00 0.00 0.00 92 1019.9
20260902033822 56 167 2.0 6.0 0.00 0.00 0.00 92 1019.9
20260902032756 56 200 2.0 6.0 0.00 0.00 0.00 92 1019.9
20260902031730 57 218 2.0 6.0 0.00 0.00 0.00 92 1020.0
20260902030730 57 174 2.0 6.0 0.00 0.00 0.00 92 1020.1
20260902024735 57 213 3.0 7.0 0.00 0.00 0.00 91 1020.1
20260902023735 57 180 3.0 6.0 0.00 0.00 0.00 91 1020.2
20260902022730 57 189 3.0 6.0 0.00 0.00 0.00 91 1020.3
20260902022234 57 196 3.0 7.0 0.00 0.00 0.00 90 1020.3
20260902020723 57 173 3.0 8.0 0.00 0.00 0.00 90 1020.4
20260902015719 57 178 3.0 7.0 0.00 0.00 0.00 90 1020.4
20260902014716 57 186 2.0 6.0 0.00 0.00 0.00 89 1020.3
20260902013718 57 210 3.0 6.0 0.00 0.00 0.00 89 1020.4
20260902012716 58 190 2.0 8.0 0.00 0.00 0.00 89 1020.4
20260902011714 58 200 3.0 8.0 0.00 0.00 0.00 88 1020.4
20260902010718 58 207 3.0 7.0 0.00 0.00 0.00 88 1020.5
20260902005717 58 221 3.0 6.0 0.00 0.00 0.00 88 1020.5
20260902004713 58 159 2.0 5.0 0.00 0.00 0.00 87 1020.4
20260902003714 58 178 2.0 5.0 0.00 0.00 0.00 87 1020.6
20260902003620 58 169 1.0 4.0 0.00 0.00 0.00 87 1020.6
20260902001715 58 169 1.0 4.0 0.00 0.00 0.00 87 1020.5
20260902000716 58 148 1.0 5.0 0.00 0.00 0.00 86 1020.7
20260901235714 58 176 2.0 7.0 0.00 0.00 0.00 86 1020.6
20260901234713 58 179 3.0 6.0 0.00 0.00 0.00 85 1020.9
20260901233711 59 200 2.0 4.0 0.00 0.00 0.00 85 1020.8
20260901233636 59 167 3.0 6.0 0.00 0.00 0.00 85 1020.7
20260901231712 59 186 2.0 6.0 0.00 0.00 0.00 85 1020.9
20260901230712 59 175 3.0 6.0 0.00 0.00 0.00 85 1021.0
20260901225717 58 185 2.0 6.0 0.00 0.00 0.00 85 1021.0
20260901224719 58 193 1.0 4.0 0.00 0.00 0.00 84 1021.0
20260901223714 58 193 2.0 4.0 0.00 0.00 0.00 84 1021.0
20260901222709 58 193 2.0 3.0 0.00 0.00 0.00 83 1021.1
20260901221715 59 193 2.0 4.0 0.00 0.00 0.00 83 1021.0
20260901220710 59 226 2.0 5.0 0.00 0.00 0.00 83 1021.2
20260901215709 59 206 2.0 5.0 0.00 0.00 0.00 83 1021.2
20260901214709 59 184 1.0 4.0 0.00 0.00 0.00 82 1021.3
20260901214557 60 184 1.0 5.0 0.00 0.00 0.00 82 1021.2
20260901212717 60 211 2.0 5.0 0.00 0.00 0.00 81 1021.3
20260901211715 60 208 1.0 4.0 0.00 0.00 0.00 80 1021.4
20260901210705 60 175 1.0 4.0 0.00 0.00 0.00 80 1021.2
20260901205703 60 187 1.0 7.0 0.00 0.00 0.00 80 1021.3
20260901204704 61 196 1.0 6.0 0.00 0.00 0.00 80 1021.4
20260901203704 61 250 1.0 3.0 0.00 0.00 0.00 80 1021.3
20260901202708 62 250 1.0 4.0 0.00 0.00 0.00 79 1021.5
20260901201711 62 214 1.0 2.0 0.00 0.00 0.00 79 1021.4
20260901200703 62 231 1.0 3.0 0.00 0.00 0.00 79 1021.4
20260901195704 62 298 1.0 2.0 0.00 0.00 0.00 79 1021.3
20260901194705 62 298 1.0 2.0 0.00 0.00 0.00 79 1021.3
20260901193702 62 298 0.0 2.0 0.00 0.00 0.00 78 1021.1
20260901192701 63 298 0.0 1.0 0.00 0.00 0.00 76 1021.1
20260901191701 63 298 0.0 0.0 0.00 0.00 0.00 77 1021.2
20260901190701 63 298 0.0 1.0 0.00 0.00 0.00 76 1021.1
20260901185703 64 298 0.0 1.0 0.00 0.00 0.00 74 1021.0
20260901184707 64 298 0.0 2.0 0.00 0.00 0.00 74 1021.0
20260901183704 64 298 1.0 2.0 0.00 0.00 0.00 73 1020.9
20260901182703 64 298 0.0 3.0 0.00 0.00 0.00 73 1020.7
20260901181703 65 323 1.0 4.0 0.00 0.00 0.00 72 1020.7
20260901180659 65 267 1.0 4.0 0.00 0.00 0.00 71 1020.6
20260901180610 66 343 2.0 5.0 0.00 0.00 0.00 69 1020.6
20260901175606 67 299 2.0 5.0 0.00 0.00 0.00 68 1020.7
20260901173700 67 321 3.0 6.0 0.00 0.00 0.00 66 1020.6
20260901172659 68 298 3.0 8.0 0.00 0.00 0.00 65 1020.6
20260901171704 69 259 3.0 7.0 0.00 0.00 0.00 65 1020.8
20260901170701 70 281 3.0 6.0 0.00 0.00 0.00 61 1020.7
20260901165701 69 269 3.0 9.0 0.00 0.00 0.00 59 1020.7
20260901164700 70 250 4.0 9.0 0.00 0.00 0.00 58 1020.7
20260901163659 69 246 3.0 9.0 0.00 0.00 0.00 58 1020.7
20260901162703 71 269 5.0 11.0 0.00 0.00 0.00 56 1020.7
20260901161657 71 258 3.0 10.0 0.00 0.00 0.00 56 1020.6
20260901160658 71 191 4.0 8.0 0.00 0.01 0.00 56 1020.7
20260901160625 71 264 4.0 10.0 0.00 0.01 0.00 56 1020.5
20260901154700 71 254 3.0 7.0 0.00 0.01 0.00 57 1020.5
20260901154151 70 258 4.0 9.0 0.00 0.01 0.00 59 1020.5
20260901152657 71 229 4.0 9.0 0.00 0.01 0.00 58 1020.4
20260901151700 72 261 5.0 11.0 0.00 0.01 0.00 56 1020.5
20260901150657 73 186 5.0 11.0 0.00 0.01 0.00 56 1020.3
20260901145935 72 333 4.0 10.0 0.00 0.01 0.00 60 1020.5
20260901145707 71 274 2.0 10.0 0.00 0.01 0.00 60 1020.5
20260901144657 70 259 3.0 9.0 0.00 0.01 0.00 61 1020.5
20260901142659 72 248 5.0 10.0 0.00 0.01 0.00 59 1020.5
20260901141656 73 305 3.0 11.0 0.00 0.01 0.00 56 1020.6
20260901140655 73 275 3.0 7.0 0.00 0.01 0.00 57 1020.6
20260901135653 73 229 3.0 11.0 0.00 0.01 0.00 59 1020.6
20260901134652 71 242 4.0 8.0 0.00 0.01 0.00 62 1020.8
20260901133659 72 227 3.0 9.0 0.00 0.01 0.00 60 1020.8
20260901132658 72 286 4.0 10.0 0.00 0.01 0.00 60 1020.6
20260901131652 71 310 5.0 10.0 0.00 0.01 0.00 60 1020.8
20260901130655 71 285 6.0 13.0 0.00 0.02 0.00 62 1020.9
20260901125648 71 321 5.0 12.0 0.00 0.02 0.00 63 1020.8
20260901124652 71 290 4.0 11.0 0.00 0.02 0.00 62 1021.0
20260901123654 70 254 3.0 8.0 0.00 0.02 0.00 66 1020.9
20260901123616 70 264 3.0 7.0 0.00 0.02 0.00 66 1021.0
20260901121646 70 275 3.0 9.0 0.00 0.02 0.00 66 1021.0
20260901121639 69 289 5.0 11.0 0.00 0.02 0.00 66 1021.0
20260901115643 70 267 5.0 10.0 0.00 0.02 0.00 66 1020.9
20260901114640 69 266 5.0 11.0 0.00 0.02 0.00 67 1021.0
20260901113640 69 271 5.0 14.0 0.00 0.02 0.00 67 1021.0
20260901112644 70 291 5.0 13.0 0.00 0.02 0.00 66 1021.1
20260901111644 70 241 3.0 9.0 0.00 0.02 0.00 66 1021.1
20260901110644 70 288 5.0 10.0 0.00 0.02 0.00 65 1021.1
20260901105646 70 261 6.0 14.0 0.00 0.02 0.00 65 1021.1
20260901104647 71 311 5.0 11.0 0.00 0.03 0.00 64 1021.0
20260901103654 69 277 5.0 10.0 0.00 0.03 0.00 66 1020.9
20260901102645 68 273 4.0 10.0 0.00 0.03 0.00 70 1020.9
20260901102117 69 254 5.0 11.0 0.00 0.03 0.00 68 1020.7
20260901100643 69 254 4.0 10.0 0.00 0.03 0.00 67 1020.9
20260901095638 69 291 5.0 11.0 0.00 0.03 0.00 69 1020.9
20260901094640 68 322 4.0 11.0 0.00 0.03 0.00 71 1020.9
20260901093638 67 288 3.0 7.0 0.00 0.03 0.00 72 1020.9
20260901092639 67 300 4.0 9.0 0.00 0.03 0.00 74 1020.9
20260901091636 68 245 3.0 8.0 0.00 0.03 0.00 74 1020.9
20260901090655 67 315 4.0 8.0 0.00 0.03 0.00 75 1020.6
20260901090638 67 175 3.0 8.0 0.00 0.03 0.00 74 1020.7
20260901084639 67 292 3.0 8.0 0.00 0.03 0.00 77 1020.6
20260901083815 67 271 3.0 8.0 0.00 0.03 0.00 79 1020.5
20260901083646 66 306 4.0 11.0 0.00 0.03 0.00 77 1020.6
20260901081637 66 302 3.0 7.0 0.00 0.03 0.00 80 1020.4
20260901080722 65 267 3.0 7.0 0.00 0.04 0.00 84 1020.3
20260901080638 66 286 3.0 7.0 0.00 0.03 0.00 82 1020.5
20260901074642 65 257 2.0 7.0 0.00 0.07 0.00 85 1020.1
20260901073816 62 250 2.0 8.0 0.00 0.19 0.00 93 1019.9
20260901073645 64 263 2.0 6.0 0.00 0.09 0.00 87 1020.0
20260901072632 63 260 2.0 7.0 0.00 0.11 0.00 91 1020.0